Location: Baix
(44.7118°N, 4.7648°E)
Time: 17:02:02
(UTC+00:00)

CZ-2D R/B - Pass Details

Date: 07 August 2020
Orbit: 552 x 639 km, 97.9° (Epoch: 22 September)

Event Time Altitude Azimuth Distance (km) Brightness Sun altitude
Rises 03:21:43 0° 6° (N) 2,803 7.6 -11.9°
Reaches altitude 10° 03:23:58 10° 0° (N) 1,886 6.6 -11.6°
Maximum altitude 03:27:49 43° 289° (WNW) 802 3.9 -11.0°
Enters shadow 03:30:55 14° 221° (SW) 1,581 5.0 -10.6°
